EW5770 Weather Reports


Display with metric or nautical units.
time (UTC)temp
F
wind
direction
speed
MPH
gust
MPH
rain 1hr
in
rain 24hr
in
rain mn
in
humidity
%
barometer
mb
20240520151534 69 174 1.0 5.0 0.00 3.82 0.76 82 1008.3
20240520151032 69 193 1.0 5.0 0.00 3.82 0.76 82 1008.2
20240520150514 69 195 3.0 6.0 0.00 3.82 0.76 82 1008.2
20240520150033 69 148 2.0 6.0 0.00 3.82 0.76 81 1008.2
20240520145513 69 233 1.0 5.0 0.00 3.82 0.76 81 1008.2
20240520145010 69 203 0.0 6.0 0.00 3.82 0.76 81 1008.2
20240520144531 69 164 3.0 6.0 0.00 3.82 0.76 80 1008.3
20240520144033 70 163 2.0 5.0 0.00 3.82 0.76 79 1008.3
20240520143530 70 201 2.0 5.0 0.00 3.82 0.76 79 1008.3
20240520143033 70 198 1.0 5.0 0.00 3.82 0.76 79 1008.2
20240520142530 70 234 1.0 5.0 0.00 3.82 0.76 78 1008.2
20240520142026 70 239 0.0 5.0 0.00 3.82 0.76 79 1008.3
20240520141530 70 234 1.0 9.0 0.00 3.82 0.76 78 1008.3
20240520141030 70 167 3.0 9.0 0.00 3.82 0.76 78 1008.4
20240520140527 70 222 2.0 9.0 0.00 3.82 0.76 77 1008.4
20240520140050 71 208 4.0 7.0 0.00 3.82 0.76 75 1008.4
20240520135526 71 212 3.0 7.0 0.00 3.82 0.76 74 1008.5
20240520135030 72 253 2.0 7.0 0.00 3.82 0.76 74 1008.6
20240520134527 72 217 3.0 9.0 0.00 3.82 0.76 73 1008.7
20240520134031 73 157 2.0 9.0 0.00 3.82 0.76 71 1008.6
20240520133555 73 244 2.0 7.0 0.00 3.82 0.76 71 1008.6
20240520133011 73 238 2.0 6.0 0.00 3.82 0.76 70 1008.7
20240520132528 73 208 3.0 6.0 0.00 3.82 0.76 70 1008.7
20240520132032 73 204 1.0 6.0 0.00 3.82 0.76 70 1008.8
20240520131535 73 219 2.0 6.0 0.00 3.82 0.76 69 1008.8
20240520131011 73 238 3.0 6.0 0.00 3.82 0.76 68 1008.9
20240520130536 74 205 1.0 4.0 0.00 3.82 0.76 69 1009.1
20240520130030 74 158 0.0 0.0 0.00 3.82 0.76 68 1009.0
20240520125535 73 158 0.0 2.0 0.00 3.82 0.76 68 1009.1
20240520125010 72 159 1.0 3.0 0.00 3.82 0.76 69 1009.2
20240520124535 72 172 0.0 3.0 0.00 3.82 0.76 73 1009.2
20240520124012 72 229 0.0 2.0 0.00 3.82 0.76 77 1009.4
20240520123535 71 162 0.0 1.0 0.00 3.82 0.76 78 1009.4
20240520123012 70 314 0.0 1.0 0.00 3.82 0.76 80 1009.5
20240520122536 69 314 0.0 0.0 0.00 3.82 0.76 80 1009.5
20240520122012 69 314 0.0 2.0 0.00 3.82 0.76 82 1009.6
20240520121529 68 314 1.0 2.0 0.00 3.82 0.76 81 1009.6
20240520121033 68 89 0.0 1.0 0.00 3.82 0.76 84 1009.7
20240520120558 68 89 0.0 2.0 0.00 3.82 0.76 85 1009.7
20240520120012 67 89 0.0 2.0 0.00 3.82 0.76 88 1009.8
20240520115535 67 46 0.0 4.0 0.00 3.82 0.76 90 1009.8
20240520115055 66 4 2.0 4.0 0.00 3.82 0.76 93 1009.9
20240520114511 65 34 1.0 3.0 0.00 3.82 0.76 94 1009.9
20240520114035 65 29 2.0 3.0 0.00 3.82 0.76 94 1010.0
20240520113512 65 17 2.0 3.0 0.00 3.82 0.76 95 1010.1
20240520113036 65 64 1.0 4.0 0.00 3.82 0.76 95 1010.1
20240520112529 65 94 1.0 4.0 0.00 3.82 0.76 95 1010.3
20240520112027 64 122 2.0 4.0 0.00 3.82 0.76 95 1010.3
20240520111531 64 79 1.0 3.0 0.00 3.82 0.76 95 1010.2
20240520111034 64 84 0.0 6.0 0.00 3.82 0.76 95 1010.2
20240520110538 63 129 2.0 6.0 0.00 3.82 0.76 95 1010.4
20240520110012 63 59 2.0 7.0 0.00 3.82 0.76 95 1010.3
20240520105515 63 29 4.0 9.0 0.00 3.82 0.76 95 1010.4
20240520105012 63 94 5.0 11.0 0.00 3.82 0.76 95 1010.5
20240520104516 63 104 7.0 11.0 0.00 3.82 0.76 95 1010.5
20240520104013 62 63 7.0 11.0 0.16 3.82 0.76 95 1010.5
20240520103537 62 70 3.0 7.0 0.16 3.82 0.76 95 1010.6
20240520103013 62 113 3.0 12.0 0.16 3.82 0.76 95 1010.7
20240520102517 62 91 5.0 12.0 0.16 3.82 0.76 95 1010.7
20240520102041 62 114 6.0 10.0 0.16 3.82 0.76 95 1010.8
20240520101518 63 60 2.0 9.0 0.16 3.82 0.76 96 1010.8
20240520101014 63 110 4.0 9.0 0.16 3.82 0.76 96 1010.8
20240520100518 63 14 1.0 3.0 0.16 3.82 0.76 96 1010.8
20240520100013 63 67 1.0 4.0 0.16 3.82 0.76 96 1010.8
20240520095517 63 53 1.0 9.0 0.16 3.82 0.76 96 1010.9
20240520095013 62 34 6.0 10.0 0.16 3.82 0.76 96 1011.0
20240520094517 61 35 8.0 10.0 0.20 3.82 0.76 96 1011.1
20240520094014 62 76 3.0 5.0 0.20 3.66 0.73 96 1011.4
20240520093517 62 80 3.0 5.0 0.20 3.66 0.73 96 1011.3
20240520093014 61 243 0.0 6.0 0.20 3.66 0.73 96 1011.3
20240520092518 61 268 2.0 6.0 0.20 3.66 0.73 96 1011.3
20240520092015 61 232 1.0 5.0 0.20 3.66 0.73 96 1011.4
20240520091512 61 309 0.0 12.0 0.20 3.66 0.73 96 1011.2
20240520091037 61 350 1.0 12.0 0.20 3.66 0.73 96 1011.2
20240520090519 61 80 7.0 10.0 0.20 3.66 0.73 96 1011.1
20240520090015 61 52 6.0 12.0 0.20 3.66 0.73 96 1010.9
20240520085533 61 86 5.0 12.0 0.20 3.66 0.73 96 1011.0
20240520085036 61 11 4.0 8.0 0.59 3.66 0.73 96 1010.9
20240520084513 61 328 3.0 5.0 1.22 3.62 0.72 96 1010.9
20240520084032 61 321 2.0 3.0 1.42 3.46 0.69 96 1010.8
20240520083529 61 264 0.0 2.0 1.50 3.46 0.69 96 1010.8
20240520083033 61 264 1.0 4.0 1.50 3.46 0.69 96 1010.8
20240520082530 61 308 1.0 6.0 1.50 3.46 0.69 96 1010.8
20240520082026 60 330 4.0 6.0 1.50 3.46 0.69 96 1010.6
20240520081530 60 342 4.0 6.0 1.50 3.46 0.69 96 1010.7
20240520081038 60 18 3.0 5.0 1.54 3.46 0.69 96 1010.8
20240520080513 60 225 0.0 6.0 1.61 3.46 0.69 96 1011.0
20240520080036 60 236 3.0 14.0 2.01 3.46 0.69 96 1011.1
20240520075532 60 32 10.0 18.0 2.36 3.43 0.69 95 1010.9
20240520075036 60 34 10.0 14.0 2.72 2.99 0.60 95 1011.2
20240520074536 60 298 1.0 9.0 2.32 2.40 0.48 95 1011.5
20240520074012 60 210 5.0 9.0 1.93 2.01 0.40 95 1011.4
20240520073557 60 241 4.0 7.0 1.93 1.97 0.39 95 1011.0
20240520073012 60 273 0.0 5.0 1.93 1.97 0.39 95 1010.7
20240520072536 60 283 2.0 9.0 1.93 1.97 0.39 95 1010.7
20240520072034 60 11 7.0 10.0 1.97 1.97 0.39 95 1010.7
20240520071517 60 58 3.0 14.0 1.97 1.97 0.39 94 1010.7
20240520071014 60 80 7.0 17.0 1.93 1.93 0.39 94 1010.8
20240520070537 59 88 6.0 21.0 1.85 1.85 0.37 93 1010.7
20240520070011 60 30 18.0 21.0 1.42 1.42 0.28 90 1010.8
20240520065536 61 327 9.0 11.0 1.06 1.06 0.21 88 1011.4
20240520065012 62 296 1.0 6.0 0.24 0.24 0.05 87 1011.5
20240520064536 62 70 3.0 4.0 0.08 0.08 0.02 87 1011.4
20240520064034 62 89 0.0 6.0 0.04 0.04 0.01 87 1011.2
20240520063517 61 214 3.0 9.0 0.04 0.04 0.01 87 1011.0
20240520063014 61 230 4.0 9.0 0.04 0.04 0.01 85 1011.0
20240520062510 61 233 4.0 7.0 0.04 0.04 0.01 83 1011.1
20240520062014 61 335 2.0 4.0 0.00 0.00 0.00 82 1010.6
20240520061511 62 91 1.0 4.0 0.00 0.00 0.00 80 1010.5
20240520061026 61 319 2.0 7.0 0.00 0.00 0.00 80 1010.6
20240520060530 62 12 3.0 7.0 0.00 0.00 0.00 81 1010.4
20240520060026 62 337 4.0 6.0 0.00 0.00 0.00 80 1010.3
20240520055530 61 19 2.0 7.0 0.00 0.00 0.00 80 1010.3
20240520055047 61 11 5.0 7.0 0.00 0.00 0.00 80 1010.1
20240520054551 61 356 4.0 5.0 0.00 0.00 0.00 81 1010.0
20240520054033 61 13 3.0 5.0 0.00 0.00 0.00 81 1010.1
20240520053550 60 345 3.0 4.0 0.00 0.00 0.00 81 1010.1
20240520053034 60 36 2.0 5.0 0.00 0.00 0.00 83 1010.1
20240520052533 60 8 4.0 7.0 0.00 0.00 0.00 82 1010.0
20240520052013 60 359 4.0 7.0 0.00 0.00 0.00 83 1010.0
20240520051553 59 4 6.0 7.0 0.00 0.00 0.00 84 1010.1
20240520051015 59 325 3.0 7.0 0.00 0.00 0.00 84 1010.1
20240520050519 59 359 5.0 7.0 0.00 0.00 0.00 86 1009.9
20240520050015 58 8 4.0 6.0 0.00 0.00 0.00 87 1009.9
20240520045520 58 334 3.0 4.0 0.00 0.00 0.00 88 1009.9
20240520045018 57 303 3.0 5.0 0.00 0.00 0.00 89 1009.9
20240520044523 56 1 3.0 6.0 0.00 0.00 0.00 89 1009.9
20240520044049 56 20 5.0 6.0 0.00 0.00 0.00 89 1009.9
20240520043523 56 30 4.0 6.0 0.00 0.00 0.00 89 1009.9
20240520043048 56 27 4.0 6.0 0.00 0.00 0.00 87 1010.0
20240520042524 57 22 3.0 4.0 0.00 0.00 0.00 87 1010.0
20240520042050 57 22 3.0 6.0 0.00 0.00 0.00 87 1010.0
20240520041534 57 16 3.0 7.0 0.00 0.00 0.00 88 1009.9
20240520041011 57 16 6.0 7.0 0.00 0.00 0.00 88 1009.9
20240520040537 57 16 5.0 6.0 0.00 0.00 0.00 87 1009.9
20240520040012 57 23 5.0 6.0 0.00 0.00 0.00 86 1009.8
20240520035516 58 19 3.0 5.0 0.00 0.00 0.00 85 1009.9
20240520035013 58 20 3.0 6.0 0.00 0.00 0.00 85 1009.9
20240520034535 58 1 4.0 6.0 0.00 0.00 0.00 85 1009.9
20240520034011 58 27 3.0 7.0 0.00 0.00 0.00 85 1009.8
20240520033516 57 7 3.0 7.0 0.00 0.00 0.00 86 1009.9
20240520033012 57 352 5.0 6.0 0.00 0.00 0.00 87 1009.9
20240520032517 57 25 5.0 8.0 0.00 0.00 0.00 87 1010.0
20240520032014 57 34 6.0 8.0 0.00 0.00 0.00 86 1010.0
20240520031538 57 43 5.0 7.0 0.00 0.00 0.00 85 1010.1
20240520031014 58 6 5.0 7.0 0.00 0.00 0.00 84 1010.1
20240520030538 58 10 4.0 7.0 0.00 0.00 0.00 84 1010.2
20240520030012 58 348 3.0 6.0 0.00 0.00 0.00 84 1010.2
20240520025515 58 29 5.0 7.0 0.00 0.00 0.00 83 1010.2
20240520025012 58 27 5.0 7.0 0.00 0.00 0.00 84 1010.2
20240520024516 58 8 4.0 8.0 0.00 0.00 0.00 84 1010.3
20240520024057 58 20 4.0 8.0 0.00 0.00 0.00 84 1010.3
20240520023530 57 6 4.0 9.0 0.00 0.00 0.00 86 1010.3
20240520023034 57 41 6.0 9.0 0.00 0.00 0.00 87 1010.4
20240520022531 57 40 5.0 8.0 0.00 0.00 0.00 85 1010.4
20240520022027 57 335 3.0 5.0 0.00 0.00 0.00 87 1010.5
20240520021531 56 32 4.0 5.0 0.00 0.00 0.00 88 1010.6
20240520021016 56 18 3.0 6.0 0.00 0.00 0.00 88 1010.6
20240520020513 56 20 4.0 6.0 0.00 0.00 0.00 88 1010.6
20240520020036 56 25 2.0 6.0 0.00 0.00 0.00 87 1010.6
20240520015519 56 28 4.0 5.0 0.00 0.00 0.00 86 1010.6
20240520015016 57 4 1.0 2.0 0.00 0.00 0.00 85 1010.6
20240520014512 57 16 0.0 3.0 0.00 0.00 0.00 85 1010.6
20240520014016 57 27 2.0 6.0 0.00 0.00 0.00 85 1010.5
20240520013513 57 338 3.0 6.0 0.00 0.00 0.00 86 1010.5
20240520013017 57 359 3.0 7.0 0.00 0.00 0.00 86 1010.6
20240520012514 57 1 5.0 7.0 0.00 0.00 0.00 84 1010.6
20240520012017 57 350 4.0 7.0 0.00 0.00 0.00 84 1010.6
20240520011516 58 22 4.0 7.0 0.00 0.00 0.00 83 1010.7
20240520011012 58 23 5.0 7.0 0.00 0.00 0.00 83 1010.6
20240520010536 58 346 5.0 7.0 0.00 0.00 0.00 83 1010.6
20240520010039 58 338 4.0 6.0 0.00 0.00 0.00 82 1010.7
20240520005522 58 336 4.0 8.0 0.00 0.00 0.00 81 1010.8
20240520005019 58 338 5.0 8.0 0.00 0.00 0.00 82 1010.7
20240520004523 58 360 4.0 7.0 0.00 0.00 0.00 83 1010.7
20240520004020 58 347 4.0 7.0 0.00 0.00 0.00 83 1010.8
20240520003516 58 11 4.0 7.0 0.00 0.00 0.00 83 1010.8
20240520003020 58 348 4.0 6.0 0.00 0.00 0.00 82 1010.9
20240520002544 58 335 5.0 6.0 0.00 0.00 0.00 82 1010.9
20240520002020 58 11 4.0 5.0 0.00 0.00 0.00 83 1011.0
20240520001524 58 338 3.0 7.0 0.00 0.00 0.00 83 1011.0
20240520001021 58 12 5.0 6.0 0.00 0.00 0.00 83 1011.0
20240520000518 58 9 4.0 6.0 0.00 0.00 0.00 84 1010.9
20240520000020 59 38 3.0 6.0 0.00 0.00 0.00 82 1011.0
20240519235517 59 352 3.0 6.0 0.00 0.00 0.00 82 1011.1
20240519235021 58 8 4.0 7.0 0.00 0.00 0.00 83 1011.1
20240519234518 59 351 5.0 7.0 0.00 0.00 0.00 82 1011.1
20240519234022 59 31 6.0 8.0 0.00 0.00 0.00 82 1011.1
20240519233519 59 23 5.0 8.0 0.00 0.00 0.00 83 1011.0
20240519233023 59 8 6.0 8.0 0.00 0.00 0.00 85 1011.1
20240519232520 59 344 3.0 8.0 0.00 0.00 0.00 85 1011.1
20240519232024 59 11 5.0 9.0 0.00 0.00 0.00 85 1011.0
20240519231519 59 7 6.0 9.0 0.00 0.00 0.00 84 1011.1
20240519231016 59 16 5.0 8.0 0.00 0.00 0.00 82 1011.1
20240519230520 59 353 5.0 8.0 0.00 0.00 0.00 82 1011.1
20240519230039 59 336 6.0 8.0 0.00 0.00 0.00 82 1011.1
20240519225515 60 337 6.0 8.0 0.00 0.00 0.00 82 1011.1
20240519225019 60 22 5.0 9.0 0.00 0.00 0.00 83 1011.1
20240519224515 60 23 6.0 9.0 0.00 0.00 0.00 83 1011.1
20240519224040 60 40 4.0 6.0 0.00 0.00 0.00 82 1011.2
20240519223516 60 13 5.0 6.0 0.00 0.00 0.00 83 1011.3
20240519223040 60 352 4.0 6.0 0.00 0.00 0.00 83 1011.3
20240519222516 60 345 3.0 5.0 0.00 0.00 0.00 84 1011.3
20240519222041 60 338 4.0 5.0 0.00 0.00 0.00 85 1011.3
20240519221524 60 350 4.0 5.0 0.00 0.00 0.00 86 1011.2
20240519221021 60 337 4.0 7.0 0.00 0.00 0.00 87 1011.2
20240519220521 60 6 6.0 8.0 0.00 0.00 0.00 87 1011.3
20240519220046 61 22 3.0 6.0 0.00 0.00 0.00 84 1011.3
20240519215521 61 335 4.0 6.0 0.00 0.00 0.00 82 1011.3
20240519215018 61 330 3.0 5.0 0.00 0.00 0.00 83 1011.3
20240519214522 61 347 4.0 5.0 0.00 0.00 0.00 83 1011.3
20240519214018 62 345 3.0 4.0 0.00 0.00 0.00 83 1011.3
20240519213522 62 359 3.0 4.0 0.00 0.00 0.00 83 1011.3
20240519213019 62 335 3.0 5.0 0.00 0.00 0.00 83 1011.3
20240519212523 62 13 3.0 5.0 0.00 0.00 0.00 83 1011.3
20240519212041 62 11 4.0 5.0 0.00 0.00 0.00 84 1011.3
20240519211524 62 347 3.0 6.0 0.00 0.00 0.00 85 1011.3
20240519211021 62 2 4.0 6.0 0.00 0.00 0.00 85 1011.2
20240519210525 62 339 3.0 6.0 0.00 0.00 0.00 87 1011.2
20240519210021 62 339 4.0 7.0 0.00 0.00 0.00 87 1011.2
20240519205525 62 22 6.0 7.0 0.00 0.00 0.00 85 1011.2
20240519205048 63 333 2.0 6.0 0.00 0.00 0.00 83 1011.3
20240519204524 63 4 4.0 6.0 0.00 0.00 0.00 83 1011.1
20240519204021 63 333 4.0 6.0 0.00 0.00 0.00 83 1011.1
20240519203525 63 340 4.0 6.0 0.00 0.00 0.00 84 1011.0
20240519203022 63 337 4.0 6.0 0.00 0.00 0.00 84 1010.9
20240519202526 63 13 3.0 6.0 0.00 0.00 0.00 84 1011.0
20240519202023 63 6 4.0 6.0 0.00 0.00 0.00 83 1010.9
20240519201548 64 7 3.0 6.0 0.00 0.00 0.00 83 1010.9
20240519201031 64 354 3.0 6.0 0.00 0.00 0.00 83 1010.8
20240519200548 64 19 4.0 6.0 0.00 0.00 0.00 83 1010.8
20240519200030 64 340 4.0 6.0 0.00 0.00 0.00 83 1010.7
20240519195527 63 340 4.0 7.0 0.00 0.00 0.00 84 1010.7
20240519195052 64 15 3.0 6.0 0.00 0.00 0.00 84 1010.7
20240519194535 64 11 3.0 3.0 0.00 0.00 0.00 83 1010.6
20240519194011 65 20 2.0 3.0 0.00 0.00 0.00 82 1010.5
20240519193528 65 7 1.0 3.0 0.00 0.00 0.00 81 1010.5
20240519193012 65 325 1.0 4.0 0.00 0.00 0.00 81 1010.4
20240519192556 65 335 3.0 5.0 0.00 0.00 0.00 81 1010.3
20240519192012 65 355 4.0 5.0 0.00 0.00 0.00 81 1010.3
20240519191533 65 334 2.0 4.0 0.00 0.00 0.00 81 1010.1
20240519191030 65 10 2.0 6.0 0.00 0.00 0.00 81 1010.1
20240519190555 66 6 4.0 6.0 0.00 0.00 0.00 80 1010.1
20240519190029 66 356 1.0 2.0 0.00 0.00 0.00 79 1010.0
20240519185513 66 326 0.0 3.0 0.00 0.00 0.00 78 1009.9
20240519185030 66 321 2.0 3.0 0.00 0.00 0.00 78 1009.8
20240519184534 67 323 1.0 3.0 0.00 0.00 0.00 77 1009.7
20240519184030 67 326 2.0 4.0 0.00 0.00 0.00 77 1009.7
20240519183534 67 326 3.0 4.0 0.00 0.00 0.00 76 1009.7
20240519183030 67 332 0.0 3.0 0.00 0.00 0.00 76 1009.7
20240519182535 68 345 1.0 3.0 0.00 0.00 0.00 74 1009.7
20240519182031 68 322 0.0 0.0 0.00 0.00 0.00 73 1009.6
20240519181535 68 322 0.0 2.0 0.00 0.00 0.00 73 1009.6
20240519181012 68 321 1.0 2.0 0.00 0.00 0.00 72 1009.5
20240519180536 69 1 0.0 2.0 0.00 0.00 0.00 72 1009.5
20240519180033 69 360 0.0 3.0 0.00 0.00 0.00 72 1009.5
20240519175516 69 352 2.0 3.0 0.00 0.00 0.00 70 1009.5
20240519175012 70 307 2.0 2.0 0.00 0.00 0.00 68 1009.7
20240519174516 70 272 0.0 1.0 0.00 0.00 0.00 68 1009.6
20240519174013 70 272 0.0 2.0 0.00 0.00 0.00 66 1009.6
20240519173533 70 272 1.0 2.0 0.00 0.00 0.00 66 1009.7
20240519173027 70 270 1.0 2.0 0.00 0.00 0.00 65 1009.7
20240519172531 70 271 1.0 2.0 0.00 0.00 0.00 65 1009.6
20240519172011 70 273 2.0 2.0 0.00 0.00 0.00 64 1009.6
20240519171552 71 252 1.0 2.0 0.00 0.00 0.00 63 1009.5
20240519171012 71 250 0.0 2.0 0.00 0.00 0.00 63 1009.5
20240519170536 71 140 0.0 3.0 0.00 0.00 0.00 62 1009.6
20240519170011 72 231 1.0 3.0 0.00 0.00 0.00 61 1009.7
20240519165536 72 100 0.0 5.0 0.00 0.00 0.00 63 1009.7
20240519165012 71 226 3.0 5.0 0.00 0.00 0.00 62 1009.7
20240519164537 72 274 3.0 5.0 0.00 0.00 0.00 61 1009.6
20240519164033 72 198 1.0 4.0 0.00 0.00 0.00 61 1009.6
20240519163518 72 226 2.0 4.0 0.00 0.00 0.00 63 1009.6
20240519163013 71 271 2.0 7.0 0.00 0.00 0.00 63 1009.7
20240519162537 71 240 4.0 7.0 0.00 0.00 0.00 62 1009.7
20240519162014 72 247 4.0 6.0 0.00 0.00 0.00 60 1009.7
20240519161539 73 240 1.0 6.0 0.00 0.00 0.00 61 1009.8
20240519161015 72 233 3.0 7.0 0.00 0.00 0.00 61 1009.8
20240519160519 72 234 3.0 7.0 0.00 0.00 0.00 62 1009.8
20240519160013 72 259 2.0 6.0 0.00 0.00 0.00 62 1009.9
20240519155538 72 231 1.0 9.0 0.00 0.00 0.00 61 1010.0
20240519155014 71 110 3.0 9.0 0.00 0.00 0.00 62 1010.0
20240519154518 72 155 4.0 8.0 0.00 0.00 0.00 61 1010.0
20240519154014 72 232 4.0 7.0 0.00 0.00 0.00 60 1010.0
20240519153518 72 240 3.0 8.0 0.00 0.00 0.00 60 1010.1
20240519153016 71 221 3.0 8.0 0.00 0.00 0.00 60 1010.1
20240519152540 71 241 6.0 8.0 0.00 0.00 0.00 60 1010.2
20240519152016 71 224 4.0 11.0 0.00 0.00 0.00 62 1010.1